User: anonymous   Login
Location: Nebula Knoll Observatory
(43.6666°N, 71.0000°W)
Time: 06:51:58
(UTC-05:00)
Language:

Cosmos 1782 - Orbit

View from above orbital plane
View from above orbital plane
View from above satellite
View from above satellite

Ground track
Ground track

The orbit data is extracted from the following two-line orbital elements,

1 16986U 86074A   16345.87373941  .00000264  00000-0  15938-4 0  9998
2 16986  82.5064 304.3838 0009041 262.1210  97.8992 15.06378668642505
Epoch (UTC): 10 December 2016 20:58:11
Eccentricity: 0.0009041
inclination: 82.5064°
perigee height: 541 km
apogee height: 553 km
right ascension of ascending node: 304.3838°
argument of perigee: 262.1210°
revolutions per day: 15.06378668
mean anomaly at epoch: 97.8992°
orbit number at epoch: 64250

The dashed part of the orbit path shows where the satellite is in the earth's shadow,  

DLR